DLH77Y LFMN-EDDF

Flight info

Callsign DLH77Y
Flight time 1h 9m
Altitude 40000
Route BASIP DCT ANAKI DCT GEN DCT SRN DCT ABESI DCT LADOL T163 EMPAX EMPAX5B
Aircraft A343/H-SDE2E3FGHIJ4J5M1RWXY/LB1D1

Departure

Time 2026-04-17 12:04
Airport Nice-Côte d'Azur Airport (LFMN)

Arrival

Time 2026-04-17 13:14
Airport Frankfurt Main Airport (EDDF)
Time Latitude Longitude Altitude Speed Heading
2026-04-17 11:35 43.66171 7.20676 26 ft 0 kts 261°
2026-04-17 11:51 43.66172 7.20686 27 ft 4 kts 261°
2026-04-17 11:51 43.66176 7.20723 29 ft 4 kts 261°
2026-04-17 11:51 43.66183 7.20756 29 ft 4 kts 230°
2026-04-17 11:51 43.66202 7.20772 29 ft 4 kts 174°
2026-04-17 11:52 43.66223 7.20768 31 ft 4 kts 171°
2026-04-17 11:52 43.66231 7.20767 31 ft 0 kts 171°
2026-04-17 11:55 43.66229 7.20767 26 ft 1 kts 171°
2026-04-17 11:55 43.66218 7.20770 26 ft 3 kts 171°
2026-04-17 11:55 43.66195 7.20775 25 ft 4 kts 171°
2026-04-17 11:55 43.66161 7.20782 27 ft 6 kts 171°
2026-04-17 11:56 43.66116 7.20792 28 ft 7 kts 171°
2026-04-17 11:56 43.66062 7.20805 25 ft 9 kts 170°
2026-04-17 11:56 43.66000 7.20820 30 ft 10 kts 170°
2026-04-17 11:56 43.65927 7.20825 28 ft 11 kts 188°
2026-04-17 11:57 43.65853 7.20759 28 ft 15 kts 224°
2026-04-17 11:57 43.65769 7.20646 30 ft 19 kts 224°
2026-04-17 11:57 43.65675 7.20515 28 ft 20 kts 225°
2026-04-17 11:57 43.65576 7.20380 29 ft 20 kts 225°
2026-04-17 11:58 43.65476 7.20243 30 ft 21 kts 225°
2026-04-17 11:58 43.65371 7.20185 27 ft 15 kts 164°
2026-04-17 11:58 43.65290 7.20273 30 ft 13 kts 136°
2026-04-17 11:58 43.65223 7.20366 29 ft 14 kts 134°
2026-04-17 11:59 43.65152 7.20464 31 ft 14 kts 137°
2026-04-17 11:59 43.65061 7.20510 29 ft 15 kts 184°
2026-04-17 11:59 43.64975 7.20440 31 ft 15 kts 226°
2026-04-17 11:59 43.64900 7.20335 30 ft 16 kts 224°
2026-04-17 12:00 43.64822 7.20231 29 ft 10 kts 223°
2026-04-17 12:00 43.64778 7.20180 29 ft 2 kts 207°
2026-04-17 12:00 43.64763 7.20179 30 ft 0 kts 181°
2026-04-17 12:01 43.64762 7.20179 30 ft 0 kts 178°
2026-04-17 12:01 43.64745 7.20188 28 ft 5 kts 159°
2026-04-17 12:02 43.64710 7.20228 27 ft 7 kts 133°
2026-04-17 12:02 43.64695 7.20274 27 ft 2 kts 76°
2026-04-17 12:02 43.64706 7.20291 28 ft 3 kts 52°
2026-04-17 12:02 43.64722 7.20317 28 ft 3 kts 45°
2026-04-17 12:03 43.64733 7.20331 28 ft 9 kts 44°
2026-04-17 12:03 43.64918 7.20584 28 ft 70 kts 45°
2026-04-17 12:03 43.65407 7.21255 28 ft 126 kts 45°
2026-04-17 12:03 43.66138 7.22257 34 ft 170 kts 45°
2026-04-17 12:04 43.67018 7.23451 459 ft 182 kts 47°
2026-04-17 12:04 43.67741 7.24936 1002 ft 192 kts 72°
2026-04-17 12:04 43.67725 7.26773 1470 ft 205 kts 115°
2026-04-17 12:04 43.66864 7.28456 2101 ft 220 kts 133°
2026-04-17 12:05 43.65823 7.30039 3027 ft 227 kts 134°
2026-04-17 12:05 43.64771 7.31692 4010 ft 230 kts 126°
2026-04-17 12:05 43.64253 7.33752 4970 ft 233 kts 90°
2026-04-17 12:05 43.64544 7.35943 5949 ft 232 kts 69°
2026-04-17 12:06 43.65044 7.38089 6850 ft 237 kts 71°
2026-04-17 12:06 43.65520 7.40300 7700 ft 241 kts 71°
2026-04-17 12:06 43.66002 7.42497 8606 ft 243 kts 71°
2026-04-17 12:06 43.66509 7.44736 9503 ft 245 kts 70°
2026-04-17 12:07 43.67036 7.47011 10354 ft 248 kts 70°
2026-04-17 12:07 43.67570 7.49289 11108 ft 253 kts 70°
2026-04-17 12:07 43.68175 7.51646 11552 ft 273 kts 67°
2026-04-17 12:07 43.68874 7.54227 11884 ft 295 kts 68°
2026-04-17 12:08 43.69617 7.56978 12220 ft 316 kts 68°
2026-04-17 12:08 43.70395 7.59883 12560 ft 335 kts 68°
2026-04-17 12:08 43.71224 7.62996 12881 ft 353 kts 68°
2026-04-17 12:08 43.72085 7.66245 13232 ft 369 kts 69°
2026-04-17 12:09 43.73013 7.69619 13834 ft 378 kts 65°
2026-04-17 12:09 43.74347 7.72735 14475 ft 381 kts 51°
2026-04-17 12:09 43.76065 7.75567 15150 ft 385 kts 47°
2026-04-17 12:09 43.77844 7.78328 15823 ft 389 kts 47°
2026-04-17 12:10 43.79664 7.81142 16512 ft 393 kts 47°
2026-04-17 12:10 43.81496 7.83997 17179 ft 397 kts 47°
2026-04-17 12:10 43.83313 7.86841 17840 ft 401 kts 47°
2026-04-17 12:10 43.85181 7.89773 18516 ft 405 kts 47°
2026-04-17 12:11 43.87035 7.92689 19088 ft 408 kts 47°
2026-04-17 12:11 43.88873 7.95737 19655 ft 413 kts 52°
2026-04-17 12:11 43.90497 7.99080 20265 ft 417 kts 56°
2026-04-17 12:12 43.93441 8.06081 21403 ft 424 kts 59°
2026-04-17 12:12 43.94858 8.09643 21937 ft 428 kts 59°
2026-04-17 12:12 43.96304 8.13290 22479 ft 432 kts 59°
2026-04-17 12:12 43.97768 8.16961 23026 ft 435 kts 59°
2026-04-17 12:13 43.99235 8.20618 23545 ft 438 kts 59°
2026-04-17 12:13 44.00736 8.24334 23986 ft 442 kts 59°
2026-04-17 12:13 44.02237 8.28042 24412 ft 445 kts 58°
2026-04-17 12:13 44.03771 8.31828 24825 ft 448 kts 58°
2026-04-17 12:14 44.05310 8.35630 25254 ft 451 kts 58°
2026-04-17 12:14 44.06835 8.39400 25687 ft 453 kts 58°
2026-04-17 12:14 44.08384 8.43237 26085 ft 456 kts 58°
2026-04-17 12:14 44.09950 8.47123 26485 ft 459 kts 58°
2026-04-17 12:15 44.11497 8.50967 26841 ft 462 kts 58°
2026-04-17 12:15 44.13074 8.54891 27194 ft 465 kts 58°
2026-04-17 12:15 44.14662 8.58851 27566 ft 468 kts 58°
2026-04-17 12:15 44.16237 8.62782 27930 ft 470 kts 58°
2026-04-17 12:16 44.17839 8.66785 28286 ft 473 kts 58°
2026-04-17 12:16 44.19498 8.70754 28639 ft 474 kts 54°
2026-04-17 12:16 44.21440 8.74430 28997 ft 474 kts 48°
2026-04-17 12:16 44.23550 8.77986 29340 ft 476 kts 47°
2026-04-17 12:17 44.25718 8.81508 29645 ft 479 kts 46°
2026-04-17 12:17 44.27178 8.83841 29851 ft 480 kts 46°
2026-04-17 12:17 44.30120 8.88503 30212 ft 484 kts 46°
2026-04-17 12:17 44.32348 8.92032 30553 ft 484 kts 46°
2026-04-17 12:18 44.33851 8.94420 30829 ft 482 kts 46°
2026-04-17 12:18 44.36044 8.97873 31225 ft 480 kts 44°
2026-04-17 12:18 44.38480 9.01066 31611 ft 476 kts 36°
2026-04-17 12:18 44.41186 9.03726 31995 ft 471 kts 27°
2026-04-17 12:19 44.44078 9.05730 32375 ft 466 kts 18°
2026-04-17 12:19 44.47185 9.07070 32782 ft 461 kts
2026-04-17 12:19 44.50314 9.07684 33167 ft 457 kts
2026-04-17 12:19 44.53500 9.07749 33541 ft 454 kts 357°
2026-04-17 12:20 44.56668 9.07650 33933 ft 453 kts 356°
2026-04-17 12:20 44.59778 9.07484 34291 ft 451 kts 355°
2026-04-17 12:20 44.62927 9.07293 34599 ft 450 kts 355°
2026-04-17 12:20 44.66028 9.07105 34887 ft 450 kts 355°
2026-04-17 12:21 44.69161 9.06925 35177 ft 449 kts 355°
2026-04-17 12:21 44.72291 9.06756 35474 ft 449 kts 355°
2026-04-17 12:21 44.75394 9.06597 35744 ft 448 kts 355°
2026-04-17 12:21 44.78513 9.06441 36015 ft 448 kts 355°
2026-04-17 12:22 44.81633 9.06288 36283 ft 447 kts 355°
2026-04-17 12:22 44.84758 9.06135 36560 ft 447 kts 355°
2026-04-17 12:22 44.87838 9.05984 36778 ft 447 kts 355°
2026-04-17 12:22 44.90962 9.05831 37049 ft 447 kts 355°
2026-04-17 12:23 44.94075 9.05677 37319 ft 446 kts 355°
2026-04-17 12:23 44.97155 9.05525 37585 ft 445 kts 355°
2026-04-17 12:23 45.00229 9.05373 37854 ft 445 kts 355°
2026-04-17 12:23 45.03335 9.05219 38119 ft 444 kts 355°
2026-04-17 12:24 45.06400 9.05067 38327 ft 444 kts 355°
2026-04-17 12:24 45.09499 9.04913 38566 ft 444 kts 355°
2026-04-17 12:24 45.12592 9.04759 38804 ft 443 kts 355°
2026-04-17 12:24 45.15687 9.04604 38990 ft 443 kts 355°
2026-04-17 12:25 45.18775 9.04450 39143 ft 443 kts 355°
2026-04-17 12:25 45.21834 9.04296 39282 ft 444 kts 355°
2026-04-17 12:25 45.24942 9.04141 39429 ft 444 kts 355°
2026-04-17 12:25 45.28000 9.03987 39575 ft 444 kts 355°
2026-04-17 12:26 45.31118 9.03831 39713 ft 445 kts 355°
2026-04-17 12:26 45.34177 9.03677 39873 ft 445 kts 355°
2026-04-17 12:26 45.37285 9.03522 40010 ft 445 kts 355°
2026-04-17 12:26 45.40398 9.03365 40129 ft 446 kts 355°
2026-04-17 12:27 45.43522 9.03207 40162 ft 449 kts 355°
2026-04-17 12:27 45.49780 9.02890 40155 ft 450 kts 355°
2026-04-17 12:28 45.56009 9.02576 40155 ft 449 kts 355°
2026-04-17 12:28 45.62240 9.02261 40160 ft 449 kts 355°
2026-04-17 12:29 45.68481 9.02076 40156 ft 450 kts 359°
2026-04-17 12:29 45.74780 9.02390 40158 ft 451 kts
2026-04-17 12:30 45.81041 9.02767 40159 ft 451 kts 360°
2026-04-17 12:30 45.87301 9.03074 40160 ft 451 kts 359°
2026-04-17 12:31 45.93569 9.03337 40164 ft 451 kts 359°
2026-04-17 12:31 45.99863 9.03590 40155 ft 451 kts 359°
2026-04-17 12:32 46.06126 9.03847 40156 ft 451 kts 359°
2026-04-17 12:32 46.12420 9.04109 40159 ft 451 kts 359°
2026-04-17 12:33 46.18666 9.04317 40157 ft 450 kts 357°
2026-04-17 12:33 46.24907 9.04051 40161 ft 449 kts 355°
2026-04-17 12:34 46.31183 9.03661 40165 ft 449 kts 355°
2026-04-17 12:34 46.37415 9.03334 40169 ft 450 kts 355°
2026-04-17 12:35 46.43686 9.03053 40186 ft 450 kts 356°
2026-04-17 12:35 46.49932 9.02789 40180 ft 449 kts 356°
2026-04-17 12:37 46.74928 9.01702 40193 ft 449 kts 356°
2026-04-17 12:38 46.81184 9.01427 40191 ft 449 kts 356°
2026-04-17 12:38 46.87443 9.01153 40200 ft 450 kts 355°
2026-04-17 12:39 46.93690 9.00877 40198 ft 450 kts 355°
2026-04-17 12:39 46.99944 9.00597 40210 ft 452 kts 355°
2026-04-17 12:40 47.06243 9.00318 40197 ft 451 kts 355°
2026-04-17 12:40 47.12492 9.00042 40204 ft 451 kts 355°
2026-04-17 12:41 47.18778 8.99764 40206 ft 451 kts 355°
2026-04-17 12:41 47.25054 8.99483 40213 ft 451 kts 355°
2026-04-17 12:42 47.31333 8.99202 40205 ft 451 kts 355°
2026-04-17 12:42 47.37583 8.98923 40207 ft 451 kts 355°
2026-04-17 12:43 47.43822 8.98642 40209 ft 451 kts 355°
2026-04-17 12:43 47.50103 8.98358 40202 ft 451 kts 355°
2026-04-17 12:44 47.56395 8.98073 40205 ft 451 kts 355°
2026-04-17 12:44 47.62630 8.97791 40202 ft 451 kts 355°
2026-04-17 12:45 47.68910 8.97505 40197 ft 451 kts 355°
2026-04-17 12:45 47.75151 8.97221 40206 ft 451 kts 355°
2026-04-17 12:46 47.81446 8.96934 40192 ft 451 kts 355°
2026-04-17 12:46 47.87687 8.96649 40207 ft 451 kts 355°
2026-04-17 12:47 47.93973 8.96361 40195 ft 450 kts 355°
2026-04-17 12:47 48.00213 8.96074 40200 ft 450 kts 355°
2026-04-17 12:48 48.06498 8.95784 40192 ft 451 kts 355°
2026-04-17 12:48 48.12739 8.95495 40196 ft 451 kts 355°
2026-04-17 12:49 48.19028 8.95728 39775 ft 452 kts
2026-04-17 12:49 48.22177 8.96170 39188 ft 454 kts
2026-04-17 12:49 48.25328 8.96637 38636 ft 454 kts
2026-04-17 12:49 48.28477 8.97109 37964 ft 455 kts
2026-04-17 12:50 48.31608 8.97582 37300 ft 456 kts
2026-04-17 12:50 48.34763 8.98059 36653 ft 456 kts
2026-04-17 12:50 48.37928 8.98540 35998 ft 457 kts
2026-04-17 12:50 48.41094 8.99021 35336 ft 458 kts
2026-04-17 12:51 48.44274 8.99506 34671 ft 459 kts
2026-04-17 12:51 48.47460 8.99992 33975 ft 459 kts
2026-04-17 12:51 48.50651 9.00478 33164 ft 461 kts
2026-04-17 12:51 48.53844 9.00965 32311 ft 463 kts
2026-04-17 12:52 48.57034 9.01452 31444 ft 466 kts
2026-04-17 12:52 48.60272 9.01947 30566 ft 469 kts
2026-04-17 12:52 48.63539 9.02450 29593 ft 473 kts
2026-04-17 12:52 48.66810 9.03147 28693 ft 474 kts
2026-04-17 12:53 48.70074 9.03972 27911 ft 472 kts
2026-04-17 12:53 48.73293 9.04781 27193 ft 469 kts
2026-04-17 12:53 48.76488 9.05569 26535 ft 465 kts
2026-04-17 12:53 48.79682 9.06347 25878 ft 461 kts
2026-04-17 12:54 48.82825 9.07107 25249 ft 457 kts
2026-04-17 12:54 48.85961 9.07863 24639 ft 452 kts
2026-04-17 12:54 48.89050 9.08605 24050 ft 448 kts
2026-04-17 12:54 48.92104 9.09133 23408 ft 443 kts
2026-04-17 12:55 48.95168 9.09515 22794 ft 438 kts
2026-04-17 12:55 48.98202 9.09901 22202 ft 433 kts
2026-04-17 12:55 49.01157 9.10295 21623 ft 428 kts
2026-04-17 12:55 49.04120 9.10700 21047 ft 424 kts
2026-04-17 12:56 49.07056 9.11109 20471 ft 420 kts
2026-04-17 12:56 49.09955 9.11517 19902 ft 416 kts
2026-04-17 12:56 49.12834 9.11925 19342 ft 413 kts
2026-04-17 12:56 49.15661 9.12327 18787 ft 410 kts
2026-04-17 12:57 49.18501 9.12733 18205 ft 407 kts
2026-04-17 12:57 49.21323 9.13137 17619 ft 403 kts
2026-04-17 12:57 49.24075 9.13532 17085 ft 399 kts
2026-04-17 12:57 49.26823 9.13928 16534 ft 395 kts
2026-04-17 12:58 49.29531 9.14568 15979 ft 393 kts 10°
2026-04-17 12:58 49.32190 9.15471 15460 ft 389 kts 12°
2026-04-17 12:58 49.34822 9.16408 14913 ft 386 kts 12°
2026-04-17 12:58 49.37435 9.17342 14394 ft 383 kts 12°
2026-04-17 12:59 49.40028 9.18265 13846 ft 381 kts 12°
2026-04-17 12:59 49.42603 9.19181 13280 ft 378 kts 12°
2026-04-17 12:59 49.45158 9.20090 12753 ft 374 kts 12°
2026-04-17 12:59 49.47660 9.20981 12243 ft 371 kts 12°
2026-04-17 13:00 49.50166 9.21873 11712 ft 367 kts 12°
2026-04-17 13:00 49.52655 9.22759 11209 ft 364 kts 12°
2026-04-17 13:00 49.55103 9.23628 10980 ft 357 kts 12°
2026-04-17 13:00 49.57508 9.24487 10911 ft 359 kts 12°
2026-04-17 13:01 49.59941 9.25286 10799 ft 351 kts
2026-04-17 13:01 49.62338 9.25410 10703 ft 336 kts 356°
2026-04-17 13:01 49.64605 9.25106 10611 ft 323 kts 354°
2026-04-17 13:01 49.66799 9.24763 10515 ft 311 kts 353°
2026-04-17 13:02 49.68913 9.24424 10409 ft 300 kts 353°
2026-04-17 13:02 49.70959 9.24092 10307 ft 291 kts 353°
2026-04-17 13:02 49.72289 9.23874 10240 ft 287 kts 353°
2026-04-17 13:02 49.74270 9.23549 10200 ft 286 kts 353°
2026-04-17 13:03 49.76246 9.23225 10196 ft 285 kts 353°
2026-04-17 13:03 49.78866 9.22792 10199 ft 286 kts 353°
2026-04-17 13:03 49.80835 9.22466 10123 ft 282 kts 353°
2026-04-17 13:03 49.82151 9.22247 9906 ft 282 kts 353°
2026-04-17 13:04 49.84111 9.21930 9472 ft 285 kts 353°
2026-04-17 13:04 49.86073 9.21636 9084 ft 287 kts 354°
2026-04-17 13:04 49.88056 9.21333 8762 ft 285 kts 353°
2026-04-17 13:04 49.89966 9.20607 8406 ft 283 kts 334°
2026-04-17 13:05 49.91660 9.19041 8095 ft 281 kts 324°
2026-04-17 13:05 49.93265 9.17306 7759 ft 281 kts 324°
2026-04-17 13:05 49.94851 9.15550 7434 ft 280 kts 324°
2026-04-17 13:05 49.96431 9.13789 7121 ft 279 kts 323°
2026-04-17 13:06 49.97989 9.12055 6785 ft 278 kts 323°
2026-04-17 13:06 49.99571 9.10309 6436 ft 278 kts 323°
2026-04-17 13:06 50.01152 9.08579 6094 ft 277 kts 323°
2026-04-17 13:06 50.02725 9.06862 5779 ft 275 kts 323°
2026-04-17 13:07 50.04285 9.05158 5476 ft 273 kts 323°
2026-04-17 13:07 50.05828 9.03479 5155 ft 272 kts 323°
2026-04-17 13:07 50.07380 9.01798 4797 ft 271 kts 323°
2026-04-17 13:07 50.08930 9.00125 4515 ft 268 kts 323°
2026-04-17 13:08 50.10367 8.98409 4328 ft 257 kts 310°
2026-04-17 13:08 50.11261 8.96098 4147 ft 247 kts 288°
2026-04-17 13:08 50.11726 8.93563 4004 ft 240 kts 275°
2026-04-17 13:08 50.11622 8.90982 3998 ft 238 kts 256°
2026-04-17 13:09 50.11146 8.88553 3986 ft 228 kts 249°
2026-04-17 13:09 50.10593 8.86301 3979 ft 215 kts 248°
2026-04-17 13:09 50.10071 8.84146 3817 ft 211 kts 249°
2026-04-17 13:09 50.09569 8.82026 3535 ft 213 kts 249°
2026-04-17 13:10 50.09050 8.79837 3234 ft 219 kts 249°
2026-04-17 13:10 50.08516 8.77596 2899 ft 218 kts 249°
2026-04-17 13:10 50.08003 8.75435 2595 ft 206 kts 250°
2026-04-17 13:10 50.07534 8.73461 2369 ft 184 kts 249°
2026-04-17 13:11 50.07107 8.71675 2106 ft 168 kts 249°
2026-04-17 13:11 50.06727 8.70055 1887 ft 154 kts 251°
2026-04-17 13:11 50.06503 8.68488 1628 ft 142 kts 261°
2026-04-17 13:11 50.06371 8.66992 1414 ft 138 kts 258°
2026-04-17 13:12 50.06145 8.65543 1257 ft 137 kts 249°
2026-04-17 13:12 50.05469 8.62751 955 ft 139 kts 252°
2026-04-17 13:12 50.05146 8.61332 779 ft 139 kts 252°
2026-04-17 13:13 50.04805 8.59929 578 ft 138 kts 253°
2026-04-17 13:13 50.04467 8.58533 393 ft 136 kts 254°
2026-04-17 13:13 50.04181 8.57307 374 ft 96 kts 249°
2026-04-17 13:13 50.04011 8.56596 365 ft 54 kts 250°
2026-04-17 13:14 50.03898 8.56102 360 ft 37 kts 255°
2026-04-17 13:14 50.03889 8.55828 356 ft 18 kts 276°
2026-04-17 13:14 50.03903 8.55699 359 ft 10 kts 283°
2026-04-17 13:14 50.03940 8.55634 357 ft 7 kts 341°
2026-04-17 13:15 50.03973 8.55655 361 ft 4 kts 41°
2026-04-17 13:15 50.03988 8.55696 358 ft 5 kts 68°
2026-04-17 13:15 50.04001 8.55750 361 ft 6 kts 69°
2026-04-17 13:15 50.04017 8.55817 359 ft 7 kts 70°
2026-04-17 13:16 50.04028 8.55866 362 ft 0 kts 70°
2026-04-17 13:16 50.04029 8.55867 361 ft 1 kts 70°
2026-04-17 13:16 50.04030 8.55875 361 ft 1 kts 70°
2026-04-17 13:16 50.04040 8.55915 360 ft 7 kts 69°
2026-04-17 13:17 50.04079 8.55966 359 ft 7 kts 14°
2026-04-17 13:17 50.04124 8.55954 362 ft 7 kts 340°
2026-04-17 13:17 50.04150 8.55939 365 ft 0 kts 340°
2026-04-17 13:18 50.04151 8.55938 365 ft 1 kts 340°
2026-04-17 13:19 50.04169 8.55928 363 ft 5 kts 340°
2026-04-17 13:19 50.04211 8.55924 357 ft 7 kts 11°
2026-04-17 13:19 50.04254 8.55953 367 ft 7 kts 23°
2026-04-17 13:19 50.04296 8.55954 361 ft 7 kts 346°
2026-04-17 13:20 50.04350 8.55926 366 ft 10 kts 342°
2026-04-17 13:20 50.04420 8.55912 365 ft 11 kts
2026-04-17 13:20 50.04504 8.55944 366 ft 14 kts 17°
2026-04-17 13:20 50.04576 8.56049 369 ft 16 kts 69°
2026-04-17 13:21 50.04616 8.56220 365 ft 18 kts 69°
2026-04-17 13:21 50.04661 8.56409 367 ft 20 kts 70°
2026-04-17 13:21 50.04709 8.56560 364 ft 12 kts 55°
2026-04-17 13:21 50.04747 8.56620 369 ft 3 kts 18°
2026-04-17 13:22 50.04763 8.56610 365 ft 4 kts 339°
2026-04-17 13:22 50.04795 8.56592 366 ft 3 kts 340°
2026-04-17 13:22 50.04804 8.56587 364 ft 0 kts 340°